Theta_e
331 324 323 324 327 325 319 316 300 306 305 299 300 303 302 310 314 310 312 316 313 320 325 328 328 327 325 322 323 325 326 322 323 315 311 326 339 341 343 342 342 343 345 347 349 348 348 349 350 350 350 351 352 352 352 352 351 352 352 352 352 351 351 351 351 351 351 351 351 352 352 351 352 351 351 350 350 349 349 349 349 348 348 349 349 350 349 347 345 344 345 345 345 344 344 344 344
323 324 324 326 324 320 310 313 303 301 302 299 300 303 304 309 310 310 312 315 318 321 326 327 327 328 328 328 329 327 324 327 328 327 331 336 339 339 339 341 342 341 345 345 348 348 347 347 349 350 351 351 352 352 351 351 351 351 351 351 351 351 351 351 350 351 351 351 351 351 352 352 352 351 351 350 350 350 349 349 349 348 348 348 349 349 349 348 344 343 344 344 344 344 344 343 343
320 323 323 324 320 316 312 312 299 299 297 296 301 303 308 309 309 312 315 319 322 324 327 325 326 326 325 325 322 321 317 329 329 330 329 336 333 334 339 342 344 345 345 345 346 347 346 347 348 349 350 351 351 352 351 351 350 350 351 350 350 351 351 351 351 351 350 350 351 351 351 351 351 351 351 350 350 349 349 349 348 348 348 349 349 349 349 349 345 342 343 342 343 345 344 344 344
321 322 324 321 310 314 306 305 302 299 297 298 300 307 307 309 313 317 319 320 322 323 327 324 322 328 323 319 322 326 322 324 329 330 328 332 332 337 341 343 343 345 347 346 347 346 345 346 348 348 349 349 350 350 350 350 350 350 350 350 350 350 350 350 350 350 350 350 350 350 350 350 350 350 351 350 350 349 348 347 348 348 349 348 348 347 347 348 349 343 342 342 342 345 345 344 343
320 322 324 319 312 305 304 303 302 302 296 300 298 306 310 314 315 319 318 322 322 324 324 323 323 328 328 325 326 320 320 329 330 334 332 334 339 341 341 341 342 342 344 345 345 345 345 347 347 347 347 348 349 348 348 349 350 349 349 350 350 350 350 350 350 350 350 350 350 349 349 349 349 349 349 349 350 349 348 348 347 348 347 347 346 346 345 346 347 348 345 346 346 345 346 345 344
315 319 321 318 309 314 308 300 299 299 302 304 302 309 312 316 317 319 319 321 323 326 326 325 321 321 320 323 327 321 328 321 330 332 334 333 340 342 341 343 342 341 343 344 344 344 345 347 346 346 346 347 347 347 347 348 348 349 349 349 349 350 350 350 349 349 349 349 349 348 348 348 348 349 348 348 349 349 348 347 347 347 346 346 345 344 344 346 347 348 343 344 345 346 345 346 345
313 314 313 313 312 311 300 300 300 301 303 308 309 311 316 319 319 319 317 319 323 323 326 322 326 324 318 324 327 330 334 335 331 332 337 338 339 341 343 342 342 341 342 344 345 344 345 346 346 346 346 345 345 346 347 347 347 348 348 349 349 349 349 349 349 349 349 349 348 348 348 348 348 348 348 348 348 348 348 347 346 346 345 344 343 343 343 345 346 346 349 343 344 345 345 345 346
319 309 309 304 302 304 299 300 301 303 304 313 314 314 319 318 321 320 320 319 315 319 322 324 324 320 319 328 317 329 334 336 336 339 339 337 340 341 342 342 339 341 343 344 345 345 346 345 345 345 345 345 345 345 346 346 346 347 347 348 349 349 349 349 349 349 349 349 348 348 348 348 348 348 347 347 346 346 346 346 346 345 345 343 343 342 344 344 344 345 347 343 344 345 344 345 345
314 310 312 306 300 303 301 299 301 306 308 312 313 318 321 319 321 320 319 320 320 319 320 323 323 316 318 321 320 328 332 337 339 340 339 339 338 341 342 341 338 341 342 344 344 345 344 345 344 344 345 345 346 346 346 346 346 347 347 348 349 348 348 348 348 348 348 347 347 347 347 347 347 347 346 346 345 345 345 344 343 344 343 342 342 341 343 344 344 344 345 343 343 343 344 345 345
311 310 303 303 303 297 299 300 299 303 306 312 314 315 317 319 320 321 320 317 318 320 321 326 324 319 322 318 321 326 330 336 338 337 338 340 342 342 341 342 341 342 341 343 344 344 344 345 344 344 345 346 346 346 345 346 346 347 348 348 348 348 348 347 347 347 347 347 346 346 346 346 346 346 346 345 345 344 344 343 343 343 343 343 343 342 341 343 344 344 342 342 342 342 344 344 345
305 310 310 302 299 297 297 299 301 303 307 312 313 316 318 319 320 318 318 316 320 316 319 324 320 320 320 319 321 332 336 338 337 334 337 339 341 341 340 342 343 342 342 343 344 344 344 343 345 344 345 345 346 345 345 346 347 347 347 347 347 347 346 346 346 346 346 346 346 346 346 346 346 345 345 345 344 344 344 343 343 343 343 343 343 341 343 343 343 343 344 343 342 343 344 344 344
303 305 306 299 298 298 299 300 302 307 311 313 314 320 322 319 320 317 318 315 317 318 317 319 317 324 318 319 321 329 335 335 335 336 336 339 338 339 340 340 341 342 343 343 344 343 344 344 343 345 344 345 345 345 346 346 346 346 346 346 346 346 345 346 345 345 345 345 345 345 345 345 345 345 345 344 344 344 344 343 344 343 343 342 342 342 342 343 341 342 342 343 344 344 343 344 344
305 307 303 301 300 300 301 301 306 308 310 313 316 322 325 319 316 317 315 319 319 317 316 322 324 324 316 318 325 330 331 334 337 338 338 337 338 338 339 339 339 340 341 343 342 342 343 344 343 343 343 344 345 346 346 346 346 346 345 345 345 345 345 345 345 345 345 345 345 345 345 346 345 345 345 345 344 344 344 343 342 343 343 342 343 343 343 343 342 341 341 342 344 344 344 344 344
306 306 305 299 303 301 300 301 306 305 305 313 318 320 322 318 317 319 319 316 317 316 321 325 324 324 319 322 322 324 328 335 337 338 338 339 337 337 338 337 338 339 339 341 341 342 342 344 344 343 344 343 344 345 346 346 346 345 345 345 345 345 345 345 345 344 344 344 344 344 345 345 345 345 344 343 343 343 343 343 343 343 343 343 343 343 343 343 342 343 343 343 344 344 343 343 344
307 311 306 302 300 301 305 302 304 305 305 314 317 318 318 321 320 321 319 315 317 323 324 328 324 320 315 318 317 323 329 335 337 339 338 338 337 337 337 336 337 338 338 339 341 341 342 343 344 343 343 344 344 344 346 345 346 345 345 344 344 344 344 344 344 344 344 343 343 344 344 345 344 345 344 344 343 343 343 343 342 343 343 343 343 342 343 343 343 344 344 344 344 345 345 343 344
310 308 306 300 298 298 301 306 307 305 307 316 318 318 318 319 322 318 320 322 320 325 325 320 329 321 324 322 323 328 332 335 337 338 336 334 335 335 335 335 335 334 336 338 339 341 341 341 342 342 342 342 342 344 345 345 345 345 344 344 344 344 344 343 345 344 344 343 345 344 345 346 345 343 344 343 345 345 344 343 343 342 343 343 342 342 342 343 344 344 344 344 344 344 344 344 345
313 309 300 300 297 302 304 304 306 302 309 314 318 316 313 312 322 323 326 326 320 321 322 325 323 329 324 326 329 333 334 337 338 336 336 334 333 332 334 333 334 333 334 335 338 340 341 342 340 341 342 341 341 342 342 340 343 345 344 344 344 345 345 346 346 346 344 346 344 344 345 347 345 346 346 343 344 344 344 344 342 342 341 343 343 343 342 342 343 343 343 344 344 343 343 344 344
309 305 302 301 301 303 308 306 308 312 312 312 315 316 315 311 319 322 323 321 321 322 321 323 326 327 329 331 333 335 336 335 335 333 332 331 331 329 330 332 331 329 332 334 335 338 338 340 338 337 339 339 339 339 341 339 340 342 340 343 345 345 346 346 345 347 349 344 342 345 345 345 347 346 347 345 345 345 343 343 343 343 342 343 343 343 343 343 342 342 343 344 343 342 342 341 339
306 304 306 300 307 308 313 313 312 309 312 316 315 315 316 313 316 318 317 316 317 316 319 323 322 325 329 331 333 333 335 334 333 333 331 329 329 329 328 328 330 330 331 333 334 335 338 338 337 337 337 340 338 338 338 339 339 345 342 342 344 345 343 343 346 346 345 344 344 345 350 345 346 344 347 344 345 343 344 341 343 343 343 343 344 343 343 344 343 343 343 341 342 342 340 338 339
311 306 302 305 310 310 314 317 315 317 316 314 314 315 314 317 316 319 316 315 317 314 315 318 318 320 324 327 330 330 331 331 332 331 331 330 330 330 329 328 328 329 329 332 331 335 338 335 335 339 339 338 338 337 338 342 343 342 342 343 344 341 341 342 343 344 341 344 346 351 350 344 345 346 345 346 344 340 340 344 344 344 344 344 343 343 344 345 345 345 344 343 341 341 339 340 341
310 308 305 308 313 309 313 316 316 316 318 314 315 316 316 318 318 317 315 313 313 314 319 319 318 320 323 326 328 329 329 330 331 332 331 331 331 332 332 331 329 333 334 336 332 335 338 337 339 337 341 344 342 344 340 342 346 348 346 345 344 344 344 343 342 342 343 342 344 350 347 347 344 345 344 346 341 341 340 345 343 344 343 343 344 344 343 341 342 342 342 343 341 340 341 342 340
313 308 311 311 313 310 314 314 316 318 318 314 315 313 311 321 320 317 315 310 309 314 319 321 323 323 323 324 326 328 328 328 328 328 329 330 329 329 334 332 334 334 337 334 335 339 340 343 343 342 344 345 344 345 346 345 347 345 345 347 344 345 343 345 344 342 342 344 342 340 345 345 348 348 348 346 343 343 345 344 344 344 343 344 343 345 341 339 339 343 340 339 340 339 338 341 339
306 311 311 312 312 311 315 315 315 317 315 314 314 315 318 316 316 318 317 316 317 320 322 324 324 324 326 327 327 325 326 328 328 328 330 330 331 332 332 332 332 332 336 335 336 339 340 341 340 341 343 343 343 344 344 344 344 347 346 346 343 343 346 343 342 344 345 344 344 343 342 339 344 346 347 346 343 345 347 348 346 346 344 343 343 342 341 340 340 342 340 340 340 338 337 336 338
312 306 312 313 314 311 315 315 317 318 317 314 316 319 316 316 311 318 316 320 322 324 324 324 327 325 326 325 326 326 327 328 328 329 331 330 332 332 333 334 335 336 334 336 337 336 339 339 341 342 341 343 343 342 344 345 345 341 345 346 344 346 345 343 343 345 345 344 347 346 349 342 340 337 338 341 345 348 344 345 348 344 345 346 348 348 341 342 343 347 341 342 338 338 337 337 340
311 308 312 311 314 315 316 316 317 318 317 317 318 314 314 316 315 318 316 320 323 324 325 325 326 325 325 325 326 327 327 328 328 330 331 332 334 334 334 334 333 333 332 334 336 336 337 340 341 340 342 341 341 344 340 342 343 342 345 344 343 343 344 343 345 346 345 344 346 343 342 344 342 340 339 339 337 340 343 340 344 346 339 342 346 347 345 340 343 343 338 337 342 336 335 339 338
313 312 313 314 312 317 317 317 317 318 317 317 315 313 316 318 320 315 317 319 323 323 324 325 325 324 324 324 326 326 326 326 328 329 330 332 334 333 334 334 333 332 332 333 335 338 338 341 339 340 342 342 345 343 341 342 343 342 343 342 344 343 343 343 344 344 343 341 341 344 345 343 342 341 342 341 337 338 338 339 337 338 342 343 339 339 341 340 338 340 337 334 334 335 333 341 339
315 314 314 313 314 316 318 316 316 317 317 318 313 312 313 318 316 308 317 320 323 322 322 324 324 322 322 323 324 326 327 328 328 330 330 331 331 332 332 332 332 332 334 336 334 337 339 339 338 340 340 342 344 341 341 341 342 340 340 340 342 342 344 342 342 342 342 342 341 342 341 342 341 341 342 340 343 339 338 337 337 338 337 338 339 337 339 338 344 337 340 336 338 334 335 338 337
313 314 313 313 313 314 315 316 316 317 315 318 316 312 315 316 315 310 315 320 322 320 320 321 323 319 321 323 323 325 326 328 330 330 328 329 328 330 330 330 331 331 335 334 337 337 339 337 338 338 340 341 341 340 339 338 339 339 340 339 341 342 343 343 340 340 342 342 341 344 344 342 344 343 343 341 339 338 339 339 337 337 338 339 338 338 337 339 336 335 335 334 337 338 333 334 340
313 314 305 309 312 310 313 313 315 317 313 317 318 312 309 312 308 316 318 321 321 321 320 319 320 321 321 323 323 323 323 326 329 327 329 328 329 331 329 330 332 333 336 336 336 336 336 337 336 338 340 340 338 337 338 338 337 336 337 338 339 339 338 338 338 337 341 340 341 339 339 340 341 340 345 341 340 339 340 339 338 338 337 339 341 340 339 338 336 335 336 336 335 335 333 332 334
314 313 309 308 307 307 311 314 315 314 314 317 314 299 303 309 313 316 318 319 319 318 317 318 319 320 321 322 322 323 324 326 326 326 327 328 329 330 329 331 333 332 331 331 335 334 336 337 337 337 338 337 338 338 338 336 338 336 336 338 339 338 338 336 336 338 338 338 337 337 337 337 336 339 337 338 339 340 339 339 337 338 337 339 341 340 339 338 339 335 335 334 336 334 331 332 332
308 308 312 305 301 301 310 312 312 310 313 316 314 299 304 309 313 318 319 318 317 314 316 317 320 320 320 321 321 321 323 328 327 328 328 329 329 329 329 330 331 332 331 331 331 333 335 335 337 335 337 336 336 335 335 335 337 335 335 336 338 343 337 337 337 337 337 337 335 335 335 336 335 335 336 337 337 337 335 336 335 336 337 337 336 339 337 334 333 333 333 332 333 332 330 330 330
309 302 299 304 300 302 309 314 311 307 312 316 312 302 303 308 312 318 320 321 318 314 315 317 319 319 320 321 321 322 324 326 327 327 328 329 329 328 329 329 331 331 331 331 331 333 332 334 335 333 334 334 334 335 336 339 337 336 334 334 333 333 335 334 337 333 331 330 330 329 332 332 332 333 334 334 335 335 334 332 332 334 338 335 335 338 336 331 332 333 334 332 330 329 329 328 329
307 303 299 299 302 302 305 310 313 312 311 313 310 302 306 307 313 318 320 320 318 315 316 316 319 320 321 320 321 322 322 323 325 325 326 326 328 327 328 329 330 331 331 331 331 332 331 332 333 332 332 332 333 333 334 334 335 334 333 334 331 330 328 328 328 329 328 327 328 327 329 331 329 330 330 331 332 331 331 329 329 330 335 333 333 334 331 332 330 331 331 331 330 327 327 326 327
301 305 302 303 300 301 299 307 312 312 311 307 310 306 307 309 313 316 320 320 316 314 314 318 317 320 320 320 320 321 321 321 321 322 324 324 325 327 328 329 330 330 331 332 332 330 329 329 330 331 333 333 337 337 335 337 336 333 332 332 334 329 327 328 328 326 326 326 326 327 328 329 329 329 330 329 332 329 330 329 329 329 330 332 331 329 327 329 329 329 328 328 329 327 323 323 325
299 299 299 299 302 304 303 303 308 310 310 307 307 307 307 309 312 315 317 319 316 315 315 316 315 317 319 319 320 319 319 320 321 322 323 325 324 325 326 328 329 329 329 330 328 328 326 326 327 328 328 329 331 330 333 336 334 333 335 332 329 330 328 327 327 326 325 325 325 325 327 329 330 329 330 329 329 328 327 328 329 327 327 328 329 325 324 325 326 328 326 324 328 326 323 324 325
302 304 303 303 303 301 303 307 310 310 307 306 306 304 306 308 311 314 315 316 315 314 315 316 316 317 318 318 318 319 319 319 321 322 322 323 324 327 326 326 326 326 326 326 325 325 325 325 326 326 327 327 328 328 327 325 327 327 325 327 325 325 325 327 326 325 326 324 325 325 325 327 328 328 329 328 327 328 327 328 328 327 325 324 326 324 324 322 322 324 325 323 324 323 323 322 321
307 305 304 304 303 303 306 307 309 312 308 305 307 306 307 308 310 313 314 315 315 315 315 316 316 317 318 318 317 317 319 319 321 322 322 321 321 323 326 325 324 324 324 324 323 324 324 322 324 324 326 327 327 325 324 324 322 322 325 321 326 324 324 326 326 326 327 324 326 324 324 325 325 327 328 327 325 326 325 326 328 327 326 325 324 325 326 322 324 324 326 324 322 320 320 320 320
307 304 303 303 305 302 307 307 310 311 308 305 307 306 307 308 311 312 314 314 312 314 314 315 315 318 319 317 317 318 318 319 320 320 321 322 321 322 322 322 322 320 322 323 323 323 323 324 324 325 328 328 329 329 328 328 325 323 322 321 319 322 322 324 323 328 326 325 325 326 326 324 323 324 325 328 326 322 323 323 323 326 326 324 324 325 325 324 323 322 323 320 321 319 319 319 320
306 304 303 300 302 306 308 308 309 310 308 305 307 305 306 308 310 312 313 313 314 316 316 316 317 316 317 317 317 317 318 319 319 320 321 319 319 319 320 322 321 320 322 322 322 324 324 324 325 326 326 326 325 327 329 328 328 329 328 324 321 321 325 324 327 330 328 326 325 324 324 325 322 320 321 322 321 321 323 324 321 324 326 324 323 323 323 320 321 322 319 318 317 319 319 319 320
303 303 302 301 303 303 298 306 309 309 308 304 306 304 306 309 311 311 314 313 315 318 319 319 319 317 317 317 318 318 318 317 318 319 319 319 319 319 318 318 322 321 322 322 323 323 323 325 325 326 327 327 327 326 326 326 326 327 329 330 327 324 321 323 323 325 323 324 323 324 321 325 322 320 320 319 319 323 323 324 321 324 323 324 322 323 320 319 319 320 319 318 318 315 315 316 321
304 305 304 302 302 303 305 304 307 307 309 310 306 303 304 307 307 307 312 315 316 317 318 318 318 319 319 320 319 320 318 318 318 319 320 319 317 318 318 319 321 320 317 320 322 324 321 323 324 325 325 327 327 328 326 327 326 327 326 327 329 326 325 326 320 322 323 323 322 326 321 323 322 320 322 320 320 320 322 324 323 321 320 323 320 322 318 319 317 318 318 318 317 315 314 315 318
302 305 305 305 305 306 306 306 307 303 303 306 305 296 296 304 306 307 310 313 312 315 315 315 316 317 318 317 318 319 319 320 319 319 318 318 317 319 321 321 321 319 321 322 323 324 324 323 323 326 327 328 325 326 328 327 326 325 326 323 321 323 321 319 321 320 318 324 320 324 329 323 321 322 320 319 320 321 321 320 324 320 321 322 321 323 319 320 318 316 316 317 316 317 316 314 313
301 302 307 307 306 306 306 305 302 296 294 303 308 297 292 304 303 306 309 310 311 314 314 314 315 316 315 317 317 319 318 318 320 319 318 317 317 317 319 320 321 319 320 322 322 325 321 322 323 324 325 326 326 325 326 328 325 325 323 321 322 322 318 324 324 324 324 318 325 321 324 323 319 319 323 318 317 321 320 320 322 321 320 319 320 323 320 319 317 315 319 318 317 319 317 314 313
301 307 308 308 306 305 304 306 304 301 306 305 306 303 296 296 303 307 309 308 309 310 312 314 314 315 315 317 317 320 319 318 318 318 319 319 318 319 318 319 320 321 323 320 324 324 324 324 325 325 325 325 324 325 324 328 325 326 324 322 321 319 321 319 324 320 328 320 326 320 322 322 319 319 320 321 317 320 320 320 321 320 321 316 319 318 318 319 319 318 323 319 320 321 317 316 314
303 307 309 305 307 306 307 305 303 302 301 298 302 303 296 295 301 307 308 305 306 308 310 312 313 315 315 316 317 319 318 318 318 318 318 319 319 319 320 318 321 322 321 325 324 321 325 324 326 326 326 327 327 326 326 324 327 327 324 322 323 322 320 321 320 321 325 320 327 323 324 326 324 326 322 322 321 320 321 321 320 319 320 318 319 317 318 316 319 318 320 320 320 320 319 321 316
307 309 309 309 308 307 307 304 302 302 299 292 297 303 293 294 302 303 306 304 305 307 309 311 313 314 315 316 318 319 318 318 318 318 319 320 319 320 320 319 321 322 324 325 325 325 324 328 326 325 324 326 327 328 327 325 325 328 324 325 321 323 321 324 321 321 322 321 322 321 325 324 324 325 325 322 324 319 321 321 318 317 319 318 319 317 318 318 319 317 318 319 320 318 319 320 318
310 308 305 305 306 304 305 304 303 299 291 295 300 302 300 292 298 300 301 303 307 308 309 312 314 315 315 317 317 317 318 317 318 318 319 319 319 320 318 320 321 323 324 324 326 321 325 327 326 324 325 326 326 327 327 325 327 323 323 321 321 320 319 319 321 320 319 321 320 319 322 322 324 322 327 322 326 320 323 321 321 318 319 321 319 317 318 317 318 317 319 320 320 317 316 318 318
307 305 304 304 302 304 303 303 302 293 291 297 303 302 302 290 297 304 307 309 311 310 309 310 312 314 315 317 317 318 319 317 317 318 317 318 318 318 318 319 320 321 323 324 325 322 325 325 327 325 326 327 327 328 328 326 326 324 325 323 321 321 319 317 317 317 314 315 318 320 322 321 322 321 325 323 322 321 323 323 321 321 319 320 318 317 318 317 317 316 319 320 318 317 318 319 316
306 305 303 296 293 296 290 295 289 290 290 298 302 302 298 297 300 305 308 309 310 312 312 311 312 313 315 316 317 317 318 318 317 317 316 316 315 317 318 318 320 320 322 322 323 326 326 325 326 325 324 326 327 327 329 328 326 325 325 324 323 324 321 319 316 316 318 319 320 320 320 320 321 319 322 319 319 320 322 322 321 323 320 320 321 319 319 319 321 318 317 318 317 315 316 317 314
305 302 301 295 290 288 286 290 293 295 298 301 301 304 296 301 303 307 307 310 312 313 314 314 314 315 315 316 317 318 318 318 317 317 317 315 315 316 318 318 317 320 321 323 323 326 326 324 325 324 323 327 326 328 328 327 327 326 327 327 324 322 323 322 322 318 317 322 322 321 320 322 320 320 318 320 318 317 320 319 320 324 321 320 320 320 319 320 320 315 316 317 316 317 319 319 316
303 307 301 298 296 291 286 288 286 289 293 299 303 296 293 295 298 310 310 312 314 314 315 315 316 317 317 317 318 318 317 318 317 317 316 316 317 318 319 319 320 318 322 323 323 324 323 322 325 322 323 326 327 328 329 323 328 328 327 327 325 323 326 326 324 323 324 320 322 318 322 323 322 321 319 322 320 319 321 320 319 322 321 322 323 322 321 321 322 321 317 319 317 318 318 317 316
307 307 306 300 297 303 292 295 295 294 293 293 296 294 302 301 308 311 313 313 313 314 315 315 316 317 316 316 316 317 318 317 318 317 317 318 319 319 320 321 320 319 322 323 320 323 326 323 324 325 323 326 326 327 327 331 325 329 329 328 326 325 329 327 325 325 325 324 325 322 323 323 322 323 323 322 321 320 322 322 319 319 323 323 322 323 321 321 321 321 320 320 316 318 318 315 315
303 304 299 301 305 304 295 296 301 300 294 290 297 298 301 305 306 309 309 311 311 312 313 313 315 315 316 315 316 316 317 317 318 316 316 317 317 318 318 319 321 319 318 319 324 323 326 326 325 323 326 326 327 328 323 328 328 327 328 330 327 327 325 323 324 323 326 325 324 322 325 323 325 324 322 324 322 321 324 324 322 320 322 322 322 321 322 320 320 321 320 318 317 317 318 316 316
305 298 303 308 309 305 299 290 292 290 289 290 298 295 296 298 291 307 307 308 310 310 312 314 315 315 314 315 316 317 317 318 317 316 317 316 317 317 317 317 319 321 320 320 323 325 326 327 324 323 323 325 326 328 331 331 326 327 328 327 325 327 326 321 326 323 321 325 323 326 325 323 325 322 323 325 324 320 323 322 322 319 321 321 321 322 319 320 320 322 320 318 316 318 317 316 315
305 302 309 299 294 294 300 295 287 286 287 288 294 297 297 299 298 303 304 305 308 310 312 313 314 314 315 316 317 318 319 318 317 317 316 316 317 318 320 317 317 321 325 319 320 323 321 324 320 324 326 328 329 328 331 333 330 328 327 327 325 327 327 327 327 325 327 322 321 324 324 324 326 324 324 324 323 319 319 323 320 319 318 318 319 318 319 319 319 319 320 318 317 316 314 313 315
309 308 304 308 305 299 297 293 297 295 288 288 290 294 291 302 302 305 304 307 309 309 311 313 313 315 315 316 317 315 317 319 317 317 316 316 316 317 318 319 316 316 316 318 320 322 324 322 323 328 329 330 326 327 330 329 328 331 330 329 329 322 324 324 327 325 320 319 319 318 321 325 325 322 324 322 321 319 320 318 317 318 317 317 316 317 317 316 317 319 318 318 316 315 314 312 313
301 302 301 302 304 306 303 302 297 294 289 289 288 288 295 303 308 307 308 309 310 311 310 316 313 315 316 317 317 316 317 317 318 318 317 316 318 318 317 319 317 316 317 322 321 322 324 323 326 326 328 328 329 329 329 328 329 329 331 329 330 327 328 328 321 324 327 328 328 325 326 324 320 323 323 323 319 317 317 317 315 316 317 316 315 316 317 318 319 317 316 316 315 314 312 311 313
302 300 300 302 303 296 293 291 302 299 295 289 289 288 297 304 311 311 310 310 311 313 312 316 313 314 317 316 318 318 316 319 321 319 319 317 318 319 316 316 317 317 316 316 319 321 318 320 323 327 327 326 327 328 326 329 335 330 327 330 326 327 322 329 326 323 323 329 327 327 327 321 320 319 323 319 316 320 318 318 315 315 315 315 315 314 315 316 315 314 315 316 315 313 312 312 313
Wind_Speed
8 8 8 9 9 9 9 7 9 7 8 12 12 10 10 15 10 3 7 5 7 4 7 10 11 12 11 10 15 13 15 9 8 2 4 3 2 1 6 9 6 5 5 5 5 8 10 12 12 12 11 12 12 13 13 13 13 13 13 13 13 12 12 12 12 12 12 12 12 11 11 11 11 12 12 12 12 13 12 11 10 9 8 7 7 7 8 7 7 7 7 6 7 7 6 6 6
7 9 8 8 9 7 8 6 7 10 8 10 12 12 14 1 11 9 8 8 9 6 8 10 10 11 11 13 9 13 17 16 15 10 4 4 2 9 12 5 4 5 7 7 5 7 9 10 12 11 12 13 14 14 14 13 13 13 13 12 11 12 12 12 12 11 12 12 12 11 11 11 12 12 12 12 12 11 11 11 9 8 8 7 7 7 7 6 6 5 5 5 4 6 5 5 4
9 8 9 7 9 8 8 7 10 9 11 11 10 13 5 7 6 7 6 8 7 8 13 10 11 8 5 11 16 11 7 15 12 10 5 5 3 5 4 3 6 7 7 5 5 8 8 9 10 11 13 13 14 15 15 13 13 12 12 11 11 11 11 11 11 11 11 12 12 11 11 11 12 12 12 12 11 11 10 9 9 8 8 8 8 8 8 8 5 4 3 3 3 6 4 4 4
9 9 10 7 8 7 8 7 10 11 10 9 11 6 2 6 9 10 7 6 5 4 11 9 8 12 10 11 11 14 12 7 13 6 4 6 4 2 1 3 4 7 7 6 6 8 8 9 11 11 12 13 14 15 14 13 13 12 11 12 11 11 11 11 11 10 11 11 11 11 11 11 12 12 12 11 12 12 10 9 9 9 9 9 8 8 8 9 12 5 4 2 2 4 4 3 2
8 9 10 9 9 8 8 8 10 11 12 9 7 3 8 7 6 7 5 3 7 3 9 9 8 12 14 12 10 4 4 9 11 8 4 3 3 3 8 9 5 5 5 7 8 8 9 11 11 10 12 13 13 13 13 12 13 12 11 12 12 11 11 11 11 11 11 11 11 11 10 10 11 11 11 11 11 10 10 9 8 8 8 6 5 7 7 8 9 10 5 7 5 4 3 3 2
9 9 10 9 9 5 8 9 9 12 13 9 10 8 4 8 6 6 6 3 4 5 13 14 8 5 8 7 5 3 5 4 3 6 4 4 5 6 5 4 4 6 7 8 9 8 8 10 11 11 12 13 13 11 11 12 12 12 11 11 11 11 11 11 11 11 11 11 11 11 10 9 10 10 10 10 10 10 9 8 7 7 6 5 5 6 6 7 8 10 4 2 3 3 3 3 3
8 8 7 9 10 8 10 12 13 10 10 14 6 4 10 9 6 7 3 3 6 7 11 15 14 12 10 6 10 8 10 4 4 6 5 3 5 7 5 4 8 9 7 6 9 9 9 10 11 11 11 11 12 11 11 11 10 10 10 11 10 11 11 11 11 11 10 10 11 10 9 9 9 10 10 10 10 10 9 8 8 7 6 5 5 4 4 7 8 7 10 4 3 3 3 4 5
9 10 6 10 8 8 10 11 13 11 2 14 12 8 7 6 9 5 5 10 6 9 10 14 13 17 11 8 7 6 10 10 10 9 9 6 5 4 6 6 8 7 8 7 9 8 10 10 10 10 10 10 10 10 11 10 9 9 10 10 10 11 11 11 10 10 10 10 10 10 9 9 8 9 9 9 9 9 8 7 7 6 5 5 5 4 4 5 6 7 9 5 4 3 3 5 6
10 11 7 9 10 8 11 12 10 15 2 7 8 10 6 5 9 5 6 7 11 14 15 8 8 13 5 12 10 6 7 7 9 10 8 7 6 5 5 8 8 4 7 5 7 7 7 9 9 9 9 9 10 10 10 9 9 8 10 10 11 11 12 11 10 10 9 9 9 9 9 8 9 9 9 9 9 8 8 7 6 5 4 4 3 4 5 5 6 6 6 3 1 2 2 3 5
9 9 9 8 7 11 11 11 12 11 9 8 6 8 8 5 7 5 6 17 12 10 8 10 12 14 12 14 10 6 4 4 7 10 8 8 7 8 9 9 8 7 6 6 6 7 6 8 8 7 7 7 8 8 8 8 8 9 10 11 11 11 11 10 9 8 8 8 7 7 8 8 9 9 9 9 9 9 8 7 6 6 5 4 4 3 2 3 5 4 3 2 2 2 2 3 4
9 9 8 10 10 10 10 12 10 13 1 7 3 4 6 3 6 8 12 12 14 4 4 9 13 14 12 11 8 3 5 6 8 10 8 9 9 9 9 8 7 6 7 6 6 6 5 5 8 8 8 8 8 7 7 7 9 10 9 10 10 10 9 8 8 7 7 7 7 7 7 8 8 8 8 8 8 9 8 7 6 6 5 4 3 2 2 3 3 3 4 3 3 2 3 3 3
9 10 9 11 11 9 9 10 12 7 10 4 8 9 10 3 9 11 11 11 4 4 2 2 4 10 12 10 6 6 7 7 8 8 7 6 7 8 8 6 6 6 5 5 5 4 4 4 4 6 6 7 6 7 8 8 8 9 9 9 9 8 8 7 7 6 5 5 5 5 6 7 7 7 7 7 8 8 7 7 7 6 4 3 2 3 3 3 3 2 2 2 4 3 4 4 5
11 8 10 10 9 9 9 12 9 7 4 8 8 10 9 14 8 11 9 6 7 7 9 9 7 4 9 8 7 8 10 6 6 7 8 7 6 5 7 7 5 5 4 2 4 3 3 3 3 3 5 5 6 6 7 8 8 8 8 8 7 6 6 5 5 5 4 4 4 4 5 6 7 6 7 7 7 7 7 7 7 6 5 2 3 2 3 4 3 3 3 3 4 4 5 5 6
10 8 9 10 9 12 9 3 6 4 5 7 7 9 14 9 7 8 10 10 9 8 3 2 8 13 13 10 6 7 7 7 6 6 6 7 6 6 7 6 5 5 4 2 2 2 1 3 3 2 2 2 2 4 6 8 7 8 7 6 4 4 3 4 3 4 3 3 2 2 3 5 5 6 6 6 6 5 5 5 5 6 4 4 4 4 4 4 4 4 5 5 5 5 5 6 7
11 7 9 8 10 13 10 6 12 2 5 4 5 9 10 6 9 8 9 12 12 5 4 7 6 3 6 10 7 8 8 9 7 5 6 7 8 8 7 5 5 6 5 4 2 2 3 3 3 2 1 2 4 4 4 4 5 5 6 4 3 2 2 2 2 2 3 3 1 1 2 4 4 4 5 4 5 4 3 4 5 4 4 4 5 3 4 5 5 6 7 8 7 6 7 7 8
7 8 7 9 11 8 9 9 7 3 7 12 11 10 2 11 7 6 7 8 8 9 4 4 10 7 13 16 12 10 9 9 7 7 8 8 7 6 4 4 4 4 2 3 5 5 3 3 3 2 3 4 4 3 4 3 3 3 1 2 1 1 1 1 1 1 1 1 3 1 1 0 1 3 1 3 4 5 7 5 4 3 3 3 2 3 3 5 7 8 8 8 8 7 8 9 9
5 6 8 10 9 7 9 7 9 5 8 12 9 13 4 2 4 8 6 8 13 11 11 10 10 11 14 12 11 10 8 7 6 8 8 6 4 5 3 6 5 5 3 4 4 4 7 5 4 4 4 5 6 5 4 7 5 2 1 3 4 4 4 4 3 2 0 3 3 0 2 1 0 1 1 1 1 2 3 3 2 1 1 2 3 3 3 5 6 7 8 8 8 8 8 9 10
7 1 9 9 6 8 11 12 12 6 6 9 12 11 7 7 5 6 8 12 13 14 14 12 14 14 12 11 10 9 8 8 8 7 6 6 4 4 5 5 3 3 4 3 5 4 3 3 2 3 3 5 3 1 2 1 2 0 3 4 5 5 6 6 6 3 6 3 1 3 2 1 0 3 0 1 0 3 3 3 3 3 3 4 4 5 6 6 7 7 8 9 10 10 9 5 5
5 3 4 7 7 5 8 8 7 3 6 8 13 13 5 1 3 7 3 9 11 13 13 12 14 12 12 12 11 10 9 9 8 8 9 8 5 6 6 4 5 1 3 5 4 3 2 2 3 3 2 2 1 2 0 2 2 2 4 6 3 5 2 3 2 4 3 6 2 2 2 3 2 2 2 3 3 6 4 0 1 2 3 4 5 5 7 7 8 9 9 9 10 10 6 4 4
5 5 2 1 4 5 4 8 7 8 9 9 12 8 5 3 3 7 4 7 9 11 11 11 13 12 12 12 10 10 10 10 8 9 9 10 8 7 6 8 5 7 8 6 3 1 1 2 4 3 2 3 2 1 3 4 3 4 6 4 2 5 5 5 3 3 5 4 4 2 3 1 1 1 2 4 4 2 3 4 3 4 6 7 7 5 6 7 10 11 11 10 7 5 3 2 2
6 4 2 1 4 4 11 7 5 9 9 10 12 9 10 9 8 1 5 9 7 6 3 10 13 12 12 12 11 10 11 10 8 9 9 8 8 6 8 10 7 4 7 7 7 7 5 8 8 7 4 2 1 5 7 5 3 3 2 3 3 3 3 4 4 5 5 5 3 4 2 2 1 0 0 0 2 0 2 0 0 0 2 3 4 2 3 5 4 4 4 3 3 4 2 2 2
4 6 4 3 3 3 7 3 4 8 9 13 10 10 4 4 7 6 5 7 5 4 6 7 9 10 12 12 11 10 11 11 10 10 10 10 11 7 5 9 8 5 4 6 7 6 6 5 4 4 3 3 2 2 1 2 1 0 2 2 3 2 3 2 3 4 5 4 5 4 2 2 0 1 0 2 2 2 1 2 1 1 2 3 2 1 2 3 3 4 3 3 3 3 3 4 5
6 9 4 5 1 4 3 4 7 6 9 11 11 7 4 5 7 8 12 8 5 5 6 7 8 10 10 11 10 11 11 11 10 10 10 10 10 9 9 7 6 5 5 7 6 6 6 7 6 5 4 4 6 2 3 3 2 2 2 1 3 3 2 3 3 3 3 5 5 5 5 4 3 2 2 2 2 2 2 0 2 2 2 3 4 3 3 3 3 4 3 4 4 4 4 4 3
7 2 6 4 3 7 1 7 6 7 9 13 13 10 7 8 10 6 12 8 6 7 6 1 7 9 10 11 11 11 11 10 10 9 9 10 9 8 8 8 8 6 7 7 6 6 5 6 5 5 5 4 2 1 2 1 2 2 1 2 4 2 2 3 3 3 3 4 3 3 3 3 4 6 5 4 1 1 2 2 3 2 2 1 2 1 3 1 1 1 2 2 4 2 2 3 2
6 7 7 6 4 8 7 6 9 9 13 12 14 10 5 6 8 7 9 7 5 4 4 5 6 8 9 11 11 10 10 10 10 10 9 7 8 8 8 7 7 7 7 6 5 4 3 3 4 4 4 5 3 2 4 3 3 3 2 2 3 3 3 2 2 2 2 1 3 5 5 4 5 4 5 7 6 4 3 3 2 2 6 3 1 1 2 3 1 1 3 4 0 2 4 2 2
3 7 4 6 6 7 8 9 7 9 8 9 13 13 8 11 11 12 6 4 5 5 5 6 6 8 9 9 10 9 10 11 10 10 8 6 7 10 8 7 5 6 4 3 3 3 4 3 4 5 4 1 3 3 3 3 2 2 2 3 3 4 2 1 1 3 4 5 5 6 6 6 6 5 5 4 5 7 5 4 5 4 2 3 4 4 4 4 5 4 3 4 4 3 3 0 1
3 9 7 10 6 6 6 9 8 8 8 8 14 15 10 6 1 3 4 2 2 6 6 2 3 8 9 8 8 9 9 9 9 8 7 7 8 8 6 7 7 5 4 6 4 4 4 5 6 5 4 4 2 3 3 3 3 4 3 3 3 3 3 4 4 4 5 4 5 5 5 5 5 5 6 6 4 5 5 6 5 5 5 5 6 6 5 5 3 4 2 4 3 4 4 3 1
4 8 8 11 9 8 6 8 10 8 8 8 11 14 8 7 9 5 5 4 2 7 5 2 3 8 9 9 9 9 7 5 4 7 9 8 6 7 8 5 6 2 3 4 3 4 3 6 6 8 6 5 5 4 4 4 4 4 3 4 4 3 4 2 4 5 4 4 4 4 3 4 3 4 4 5 4 5 5 5 6 6 5 5 5 6 6 5 5 6 6 6 4 4 5 4 2
11 6 4 7 10 8 5 5 6 6 9 10 11 14 11 8 11 9 8 5 4 6 6 1 0 6 9 8 7 6 5 4 3 8 7 7 8 7 9 4 2 5 1 4 5 4 6 5 6 5 5 5 6 6 5 4 4 5 5 4 3 4 5 5 4 3 3 4 4 5 5 5 4 5 3 5 5 3 3 5 5 5 5 4 4 4 6 5 5 5 4 5 5 5 5 5 4
14 5 4 6 8 7 3 5 6 6 5 1 5 4 7 11 11 10 11 5 1 5 2 3 4 7 7 6 6 4 2 3 6 7 7 7 8 8 9 7 7 5 6 6 7 7 5 4 4 4 5 6 6 5 5 5 4 4 4 3 3 4 4 4 4 3 4 4 4 5 4 5 5 4 5 5 4 3 3 3 3 4 5 4 3 4 5 3 4 5 5 5 5 5 5 4 4
5 3 3 1 2 3 5 6 8 7 5 6 5 5 7 10 8 8 9 13 12 9 8 9 8 9 8 5 6 4 2 1 7 7 8 10 8 9 9 8 8 7 6 7 9 8 6 6 4 4 5 6 6 6 6 5 4 4 3 3 3 2 3 3 3 3 3 3 3 4 5 5 5 5 5 5 5 3 3 3 4 3 4 4 5 4 5 6 6 6 6 6 5 5 6 6 4
3 2 2 0 1 4 7 5 6 4 4 6 4 8 7 9 11 10 9 10 9 10 13 11 9 10 9 7 8 5 5 5 6 7 8 8 9 9 9 9 8 8 8 7 7 7 8 6 6 6 6 6 6 5 5 4 4 4 4 5 5 6 4 4 4 5 5 5 5 6 6 7 6 6 6 6 6 4 4 4 5 5 3 4 5 4 3 5 5 5 5 5 5 5 5 5 4
4 2 4 1 5 6 1 6 6 5 8 6 1 7 9 9 10 7 5 7 8 10 12 13 11 11 9 8 8 7 7 7 6 8 8 8 8 9 8 8 8 7 7 7 6 6 7 7 7 6 6 6 6 5 4 5 5 4 4 4 4 6 6 6 6 6 6 6 5 5 6 5 6 6 7 7 7 6 5 5 6 8 5 5 6 6 6 5 5 6 5 6 5 6 6 5 4
4 2 1 3 5 10 4 6 11 8 8 6 6 7 7 10 10 7 5 8 13 10 10 13 10 8 13 10 9 8 8 8 8 8 8 9 10 10 7 8 7 7 7 7 7 7 7 6 6 6 5 4 2 0 2 2 3 4 4 4 4 6 6 6 5 6 6 6 5 5 5 5 5 6 6 6 6 6 5 5 5 7 6 5 5 5 6 5 5 5 5 6 6 6 6 6 4
7 4 5 8 13 8 10 7 7 7 6 9 9 8 12 11 10 8 7 6 11 10 9 9 11 10 12 9 9 10 8 8 8 8 9 8 11 9 8 7 7 7 6 7 7 7 7 7 7 8 9 9 7 8 6 2 4 4 3 4 5 4 5 6 6 5 6 5 5 6 6 6 5 5 5 6 6 6 5 5 5 6 6 6 5 5 5 5 6 5 6 8 6 6 6 6 6
9 6 3 5 7 8 6 6 5 5 10 9 10 10 12 12 11 10 10 9 10 9 8 7 9 7 11 10 8 8 9 9 8 10 10 8 8 7 6 7 7 7 7 7 8 7 7 7 6 7 8 9 8 7 8 9 7 4 5 4 6 7 5 5 6 5 5 6 6 6 6 6 4 5 4 6 6 6 6 5 5 6 6 6 6 6 5 6 7 6 6 8 7 7 7 6 9
12 10 4 3 8 6 9 6 4 4 6 8 9 11 12 11 11 11 10 10 10 10 9 8 8 7 7 8 9 10 10 10 10 10 10 10 11 9 7 6 7 8 8 8 7 8 8 8 8 8 7 8 7 6 7 7 7 8 6 8 5 5 4 4 5 5 4 5 6 6 6 7 6 5 5 6 6 6 7 6 5 5 5 5 7 5 5 7 6 6 4 6 7 8 7 7 9
13 9 5 9 9 7 7 6 7 5 3 8 10 11 10 11 11 10 10 10 10 10 9 11 8 7 5 10 9 10 9 9 10 8 9 8 8 9 8 6 7 7 7 7 7 7 8 8 8 7 5 5 5 4 5 4 4 4 4 4 6 5 4 3 4 2 4 5 6 5 6 6 8 6 7 4 6 6 6 6 7 5 5 5 6 5 6 7 7 7 7 6 7 8 6 9 9
5 4 6 9 6 8 4 7 6 5 5 5 8 9 9 10 10 9 10 9 8 6 7 9 9 10 8 8 9 9 9 9 8 8 8 9 10 10 7 6 6 7 7 7 7 7 7 7 6 6 6 6 6 7 4 3 2 3 3 4 5 5 5 7 2 2 3 3 5 6 5 5 7 7 7 6 5 6 5 5 6 6 4 5 5 5 5 7 7 7 9 7 7 6 6 7 7
4 4 4 3 6 4 1 6 7 5 4 8 7 5 8 9 9 8 9 8 7 6 5 6 6 8 8 8 7 8 9 8 9 8 8 7 8 7 7 7 5 5 5 6 5 6 5 5 5 5 5 5 5 6 7 7 7 8 5 3 5 5 5 6 9 5 7 6 5 4 6 4 5 6 7 6 6 5 4 4 5 5 6 5 6 4 6 7 7 6 7 7 6 6 7 7 6
4 2 6 4 9 5 7 9 9 6 7 8 9 8 4 2 9 7 8 6 10 8 7 7 7 7 8 8 8 8 8 8 8 8 7 7 7 7 6 6 6 5 6 5 4 3 5 7 6 6 5 4 4 5 6 5 6 4 6 5 3 4 4 2 5 5 3 3 5 2 4 4 5 5 5 7 6 5 5 4 4 5 6 6 7 5 6 7 7 6 7 7 9 7 7 6 6
1 7 5 4 10 10 8 10 11 3 4 9 10 7 5 10 10 10 8 7 8 9 9 9 8 9 9 8 9 7 8 7 8 8 7 7 7 6 6 6 6 6 4 5 4 5 5 5 6 5 4 3 6 7 6 5 4 4 3 4 5 4 3 2 2 1 5 1 2 3 2 3 4 4 4 6 7 5 5 7 4 5 5 6 7 4 5 4 6 6 6 6 7 7 6 7 7
2 4 8 7 4 6 6 11 10 3 2 6 10 2 4 6 7 7 9 9 9 9 9 10 8 7 8 8 9 7 8 8 6 8 8 8 7 7 6 5 5 6 6 4 4 4 8 6 6 6 5 5 4 6 5 4 5 4 5 5 4 2 6 2 3 4 3 6 3 5 4 5 5 4 4 5 8 5 5 5 5 5 5 5 7 4 5 5 5 6 5 4 4 4 6 6 7
5 6 6 5 4 5 5 8 8 5 11 8 7 4 3 4 4 9 8 8 8 9 10 10 9 9 8 7 7 9 7 8 8 8 8 7 7 6 7 6 6 5 4 6 2 4 6 6 4 6 5 4 5 6 5 3 4 3 3 5 5 6 3 5 3 3 2 5 4 5 5 3 5 5 5 4 6 4 5 5 5 5 4 5 6 5 5 5 5 5 4 7 4 3 4 4 5
3 3 4 4 5 1 6 3 2 1 1 4 4 9 5 2 3 2 8 8 9 10 10 10 9 9 8 7 8 7 9 8 8 8 8 6 7 7 6 8 7 6 6 3 4 6 4 4 4 4 5 4 3 4 3 5 3 3 4 4 3 3 5 3 4 5 3 5 2 4 3 3 3 3 4 5 4 5 4 4 5 5 4 5 6 5 4 5 4 6 4 4 3 4 4 3 3
7 6 4 1 2 4 2 4 3 1 1 1 6 7 3 1 2 4 10 10 11 11 10 10 11 10 10 9 9 7 7 8 7 10 7 7 7 6 7 7 7 7 4 5 4 4 4 2 4 4 5 4 3 3 3 4 4 2 4 3 3 3 4 2 4 4 4 5 3 4 2 3 4 4 2 4 3 5 4 4 5 6 4 5 5 5 4 5 4 5 6 4 4 5 4 3 3
4 3 3 3 4 3 2 5 3 3 0 5 11 9 5 1 3 4 5 8 10 10 10 10 12 11 10 11 11 10 8 7 8 10 8 8 7 8 8 7 7 6 4 5 3 6 3 2 3 5 3 4 4 3 3 4 2 4 3 5 4 4 5 5 4 3 4 4 4 4 3 4 3 4 2 4 2 4 3 4 4 5 5 4 5 5 4 5 3 5 5 4 4 5 5 4 3
7 2 3 0 2 1 4 3 1 1 2 2 9 9 12 2 2 7 10 10 11 11 14 11 13 14 12 11 10 13 12 9 9 11 10 9 8 8 8 8 7 6 6 3 4 5 4 3 3 3 3 4 3 3 3 3 3 4 4 4 5 5 5 5 5 4 5 5 4 4 4 4 3 4 3 3 4 4 3 3 4 3 4 3 4 4 4 4 4 5 5 4 5 5 4 4 5
2 7 6 3 0 4 0 2 2 5 0 4 7 8 2 3 2 7 14 12 11 13 12 14 15 15 14 13 12 10 8 8 8 10 11 9 8 8 8 8 7 7 6 5 4 4 3 4 3 3 3 5 3 2 2 2 3 4 3 4 4 4 5 5 5 5 3 4 4 3 4 4 4 4 3 4 4 5 3 3 3 2 3 3 3 3 3 4 3 5 5 5 4 5 5 4 5
5 6 2 2 2 2 1 3 4 4 4 3 6 13 3 1 2 1 6 11 6 9 12 13 13 15 15 14 12 9 9 8 8 9 11 10 9 9 8 8 9 5 7 4 5 2 2 4 2 1 5 2 1 2 2 3 2 3 2 2 3 3 3 3 4 4 4 3 3 3 3 3 4 3 4 3 4 5 3 4 4 2 3 3 3 4 4 3 4 5 5 5 5 4 4 3 3
6 7 3 1 1 2 3 2 1 2 3 6 3 4 3 4 2 6 11 2 10 10 14 10 11 14 14 13 12 11 11 10 8 9 12 10 9 9 8 7 6 8 6 5 5 5 3 2 3 2 2 2 2 2 1 2 3 2 2 2 3 3 2 2 3 2 2 2 2 3 2 2 3 3 4 3 3 4 4 4 5 3 3 3 2 3 4 3 3 2 3 3 4 4 4 4 4
3 2 4 2 2 6 4 2 1 3 3 3 3 3 6 1 4 2 4 6 6 13 15 15 15 14 13 11 10 11 10 9 8 9 13 11 9 9 6 6 6 6 7 4 6 4 4 5 4 3 2 1 1 3 1 1 5 1 1 2 3 3 1 2 2 2 2 0 1 2 2 3 3 2 2 2 3 4 2 2 3 3 2 1 2 2 2 2 2 1 2 2 3 3 3 4 3
2 1 1 4 5 3 3 1 5 4 4 1 0 6 7 3 4 3 2 4 7 8 11 10 17 14 14 11 10 11 10 8 8 11 13 11 11 9 8 7 6 9 7 8 5 6 3 2 3 2 2 2 3 3 5 3 4 2 1 1 2 2 0 1 2 1 1 1 1 0 1 2 2 2 3 2 3 4 2 1 2 3 3 3 2 3 1 2 2 1 2 3 3 3 3 3 5
4 3 1 6 4 5 3 1 1 2 3 1 7 5 6 2 1 7 10 4 7 8 9 10 14 16 14 13 11 10 9 10 9 13 13 13 11 11 9 8 7 9 7 8 6 4 6 3 4 4 7 4 3 1 1 2 4 1 1 1 3 2 2 5 2 4 4 3 0 1 1 2 1 2 2 1 2 4 2 2 2 4 3 3 3 3 3 3 3 2 2 3 3 3 4 4 5
6 2 2 5 0 2 3 1 1 2 2 1 6 9 4 4 3 5 6 5 6 8 10 10 10 12 10 15 14 14 14 9 8 9 12 10 9 9 6 9 8 6 5 7 8 6 6 5 6 4 1 2 2 2 0 0 1 2 2 3 1 2 2 2 2 3 2 4 4 2 3 2 1 3 2 2 3 4 4 2 3 3 4 4 4 4 4 4 3 3 3 4 4 4 5 6 5
6 4 6 4 3 4 3 2 3 3 3 1 4 3 2 3 2 6 4 5 7 7 9 11 11 11 9 9 12 11 9 7 9 8 12 10 11 9 9 8 8 9 6 7 9 6 7 8 6 2 2 1 1 1 1 3 1 1 1 2 2 3 2 1 2 3 4 4 4 4 3 1 1 3 3 3 3 3 3 3 4 3 3 4 4 5 5 5 5 4 4 5 5 6 7 5 4
6 5 3 5 2 4 3 2 3 5 4 4 2 2 3 3 1 8 11 4 5 6 7 7 7 8 9 8 9 8 9 8 7 8 7 11 11 9 8 8 8 10 7 3 9 8 7 8 4 5 3 2 2 2 2 3 2 2 1 2 2 2 1 0 1 1 1 1 2 2 2 2 4 3 3 3 3 4 3 4 5 4 3 4 5 5 5 4 3 5 5 5 6 6 7 6 4
6 5 6 6 3 4 1 2 3 5 2 2 2 1 3 5 2 7 8 7 4 3 6 7 4 9 8 7 7 7 7 8 5 6 4 6 11 9 8 7 9 7 7 8 7 6 8 6 5 4 4 3 2 2 4 3 1 3 2 2 1 3 2 1 0 1 1 1 2 2 2 4 4 5 3 4 4 3 4 4 5 6 5 5 5 6 5 4 6 6 6 5 5 7 6 6 4
Wind_Direction
281 259 262 258 257 264 274 245 251 203 238 244 258 241 251 239 155 82 67 69 52 6 34 51 47 56 64 91 82 69 41 38 15 321 74 125 274 53 75 45 41 76 100 79 82 88 71 61 62 64 73 76 74 72 68 66 63 59 58 55 53 54 53 53 53 53 53 53 54 54 58 59 60 63 63 62 62 60 59 59 57 55 57 57 54 54 56 58 59 62 71 74 73 61 56 58 60
261 252 250 249 253 261 240 245 252 260 224 244 246 257 261 288 308 85 72 63 62 73 59 72 64 66 104 115 101 70 48 52 58 75 90 106 98 40 28 56 87 68 57 57 35 65 67 62 56 64 76 75 70 68 67 64 61 60 60 59 55 53 52 51 49 49 51 53 51 50 50 52 56 56 58 58 59 61 59 58 56 52 50 55 53 55 52 43 64 73 83 94 103 90 72 60 58
266 266 243 228 250 242 277 245 249 243 255 239 244 246 190 156 68 81 80 68 80 90 107 106 72 39 49 47 47 53 78 45 43 52 63 348 41 30 59 345 65 60 71 79 62 70 66 55 60 61 64 68 67 64 62 61 61 61 59 57 57 55 53 52 50 48 49 50 49 46 44 44 47 51 53 58 59 57 55 50 52 53 49 49 42 36 29 9 24 67 70 62 78 87 86 72 65
290 281 274 220 240 220 238 235 249 261 245 261 250 30 3 59 97 75 90 90 79 134 70 56 58 34 64 66 79 74 54 40 38 46 76 37 56 274 271 83 32 50 61 66 73 63 64 67 60 64 68 69 64 66 64 61 61 63 60 60 58 57 56 56 55 51 51 52 53 52 43 41 42 45 49 47 52 56 55 49 47 49 46 43 36 27 13 354 347 5 15 5 54 72 81 72 49
264 264 254 253 259 225 232 233 244 236 241 246 265 48 23 60 77 71 58 50 88 79 93 129 96 56 61 48 14 37 1 74 52 40 92 54 64 25 39 44 34 77 66 97 88 79 72 62 64 72 73 71 68 65 71 66 61 62 66 65 64 61 61 64 62 60 56 58 58 54 53 45 46 46 47 49 48 51 51 49 42 45 49 43 42 36 16 351 340 339 30 9 32 24 49 48 15
241 252 240 249 242 284 241 245 224 253 279 255 257 48 76 83 60 55 56 101 94 47 64 52 80 83 50 40 32 73 3 77 59 42 69 44 68 68 76 89 87 77 72 64 72 76 70 62 67 68 66 69 69 69 68 74 73 67 68 70 71 71 68 66 65 63 62 61 61 61 58 56 55 56 51 52 53 53 49 51 49 44 44 49 45 38 12 349 338 338 359 21 12 26 9 2 343
216 227 234 229 252 265 269 256 257 255 247 266 85 97 70 61 78 108 151 98 49 77 90 115 108 109 92 127 75 52 47 71 62 67 64 100 42 33 58 79 72 67 66 68 76 71 65 65 66 70 72 77 78 74 71 69 70 70 71 72 74 75 73 69 67 63 63 64 64 64 62 56 57 58 57 55 55 52 50 49 51 47 47 53 68 48 9 350 347 347 349 9 359 19 13 351 336
235 231 197 229 224 227 237 254 263 247 106 47 66 72 56 104 74 72 49 38 52 16 44 92 89 82 62 87 96 57 69 70 89 84 80 77 66 53 63 63 61 42 64 65 80 77 69 69 74 76 84 88 92 88 84 80 75 71 77 77 76 76 71 66 62 63 63 62 64 65 63 58 58 63 67 68 63 58 51 55 52 50 43 48 57 59 15 4 344 345 345 4 17 16 356 348 324
218 238 226 231 238 228 235 236 242 251 76 118 92 97 96 57 82 81 55 43 38 51 51 51 90 78 102 84 76 84 61 76 88 89 82 75 59 61 79 89 74 44 63 76 71 70 69 67 71 77 84 90 92 95 94 88 87 85 81 79 74 71 68 63 60 61 63 62 60 65 65 62 57 57 64 67 65 59 57 52 48 47 49 61 67 49 24 11 352 323 329 0 8 328 351 325 320
227 220 210 242 239 244 243 254 236 233 217 114 109 134 134 141 99 95 114 62 44 60 55 85 90 110 114 89 92 60 65 84 92 78 69 65 68 68 70 72 90 92 88 78 80 81 76 77 76 75 77 83 86 85 83 87 85 77 72 67 68 66 65 63 62 62 65 67 65 65 69 65 62 57 57 57 58 54 51 47 47 51 64 67 67 76 32 25 10 356 344 326 315 324 316 316 303
223 199 250 238 232 245 248 248 251 267 145 106 142 118 111 138 118 122 62 62 80 63 52 94 89 99 90 81 78 126 103 112 80 73 64 70 73 64 61 56 59 65 70 68 84 89 88 77 73 66 63 57 63 67 74 78 72 68 68 68 63 62 61 64 67 63 63 68 67 66 64 64 62 63 58 58 54 55 53 48 43 44 48 63 82 102 56 33 19 18 22 4 318 305 292 281 292
225 212 193 239 243 248 232 244 254 58 76 100 70 56 7 33 77 74 91 100 19 102 174 236 116 112 97 101 107 105 103 74 76 85 81 83 76 71 68 58 63 64 59 68 74 87 96 90 69 71 62 53 54 68 70 67 69 70 70 69 66 63 64 67 70 70 66 69 71 65 67 68 68 70 71 61 59 59 59 48 47 45 49 44 29 11 18 32 359 349 357 353 315 278 282 289 283
242 236 207 227 241 240 270 258 82 98 109 43 50 12 351 58 48 95 100 97 103 37 55 89 131 121 89 87 106 119 87 79 88 105 105 100 95 84 87 69 43 46 55 68 98 106 109 100 72 59 56 50 51 65 68 63 65 70 70 66 65 70 75 78 79 80 74 68 71 67 77 82 85 77 74 65 62 56 59 51 52 54 52 30 13 6 355 348 338 321 297 295 306 278 274 287 288
233 227 264 259 263 268 264 346 162 146 69 53 40 19 2 69 66 80 97 86 76 91 85 114 90 92 104 113 106 99 89 95 107 105 110 95 87 80 70 68 49 33 23 42 98 102 66 81 93 80 72 43 28 36 59 52 52 54 54 62 70 80 89 86 88 90 91 87 76 98 82 93 95 86 79 78 66 75 58 67 57 48 46 19 357 357 334 323 302 296 292 285 288 286 280 276 285
239 226 238 257 270 259 55 27 355 343 58 54 27 47 12 56 99 93 89 88 95 147 276 358 352 259 156 133 127 103 112 120 118 119 96 81 73 76 86 75 47 23 11 356 349 106 92 76 48 23 24 27 18 18 10 44 45 39 40 43 49 64 91 108 109 112 108 99 109 141 78 49 68 84 93 87 81 59 87 94 61 45 29 17 9 340 327 311 290 282 282 282 286 292 284 279 280
252 274 261 262 261 283 12 6 5 327 60 30 39 34 44 49 37 81 78 114 97 106 119 59 46 63 71 90 105 109 110 109 107 114 102 93 84 71 66 99 111 97 69 356 346 349 3 30 14 12 351 4 10 6 352 49 25 22 58 49 56 182 199 146 109 57 29 123 168 139 89 217 95 70 144 92 100 79 59 55 55 41 15 342 343 343 315 303 276 274 279 278 284 291 290 281 276
254 244 267 258 264 23 3 14 344 25 56 49 43 16 326 60 62 75 111 111 104 93 90 66 74 70 80 97 109 111 117 113 128 122 118 114 113 88 44 31 16 14 26 45 33 357 358 11 14 6 11 16 7 355 352 26 328 335 303 226 216 223 227 225 204 172 196 297 306 56 41 288 2 158 140 86 55 68 111 121 90 115 274 282 296 287 283 275 292 279 271 275 275 277 287 289 279
257 14 9 3 348 16 354 12 22 67 71 60 50 37 59 65 38 62 96 90 96 99 87 88 81 80 95 110 117 128 133 141 138 127 121 108 108 106 88 80 35 328 349 31 49 357 6 358 15 8 7 38 7 11 20 79 265 101 317 271 234 224 215 206 212 189 173 214 261 19 274 359 265 332 103 150 183 168 166 163 173 212 236 256 270 278 272 273 282 285 269 266 270 278 280 278 275
336 329 30 328 27 12 341 54 101 103 75 75 79 78 49 170 19 295 123 98 107 103 97 101 98 104 112 118 127 129 137 120 126 122 114 113 113 121 130 122 110 58 343 1 3 352 22 30 0 43 40 115 118 4 52 268 239 232 261 281 265 204 101 87 88 58 71 90 136 113 26 56 2 38 340 15 50 20 23 105 279 264 270 273 274 280 283 290 284 276 277 279 279 282 275 249 259
40 300 262 82 48 3 2 47 66 103 100 98 92 84 97 60 53 335 50 83 102 111 125 120 113 117 115 112 113 110 105 96 93 98 100 106 119 107 96 110 109 148 151 137 129 36 324 49 353 326 139 157 127 43 336 272 219 224 215 211 26 7 2 8 33 47 40 50 95 71 92 47 352 141 303 5 51 39 331 303 302 305 305 291 281 299 283 283 276 279 274 274 290 270 253 270 290
21 309 358 185 121 45 43 45 50 109 113 98 86 85 77 55 58 296 145 93 48 41 71 118 119 119 115 113 110 108 102 104 103 99 100 93 86 72 95 109 121 160 138 155 151 154 173 124 162 180 191 163 183 179 191 199 217 211 74 47 43 12 16 13 359 7 49 20 39 81 26 148 185 52 247 84 43 44 255 341 226 328 254 268 288 255 313 313 302 283 292 260 246 271 261 261 272
350 54 69 91 98 106 87 159 137 106 103 96 104 90 68 81 77 33 115 98 92 24 3 62 110 111 111 106 99 100 97 91 87 85 78 76 78 96 76 82 137 194 107 81 86 82 72 72 58 27 25 102 131 306 91 101 140 120 62 71 77 49 25 9 13 11 13 26 18 31 38 37 350 337 101 137 191 199 230 188 121 260 244 254 277 230 246 227 264 263 255 266 278 258 270 236 237
25 40 14 1 282 50 125 96 120 120 109 99 100 106 104 88 88 71 90 93 146 149 13 30 62 90 95 102 105 98 91 85 81 76 69 62 64 65 71 76 64 53 62 65 61 59 53 42 35 28 8 27 48 329 341 33 24 4 29 353 68 42 18 32 35 8 17 13 27 7 7 356 323 178 175 184 228 178 204 175 189 203 216 231 191 198 224 234 237 246 221 224 234 241 233 253 253
106 303 356 311 11 88 237 119 106 112 95 88 99 113 130 128 85 81 87 73 66 57 124 139 79 81 90 91 88 84 84 83 81 80 80 78 72 52 57 57 60 51 50 57 58 50 46 47 44 25 13 14 68 305 54 355 81 66 356 352 70 66 36 38 17 31 28 1 19 351 353 19 347 2 0 353 49 52 4 130 197 212 189 245 122 275 282 320 273 231 296 193 226 279 263 253 311
93 124 246 315 12 119 130 115 105 94 89 98 119 116 126 99 105 97 66 56 45 76 64 57 67 89 92 88 89 87 85 86 85 80 75 80 81 77 66 67 60 57 47 42 36 51 45 36 43 49 22 30 333 48 55 40 15 36 27 38 55 74 47 30 7 4 31 87 357 27 358 21 4 7 3 351 353 3 339 5 11 3 17 346 359 257 23 284 309 347 309 283 191 273 278 39 331
65 99 155 120 181 116 110 101 87 81 100 120 103 101 104 106 89 60 52 44 60 63 46 77 100 101 87 82 80 81 83 85 84 75 70 83 84 73 61 72 69 55 73 66 51 53 76 79 45 57 59 359 345 43 51 55 51 78 53 44 32 60 46 1 347 30 22 24 16 21 12 13 6 354 9 359 359 351 356 352 3 15 13 12 341 2 335 349 338 336 313 328 341 333 330 20 310
28 57 112 153 124 114 94 95 95 98 111 150 119 132 142 185 204 84 343 356 119 86 77 33 85 93 92 90 85 75 73 68 66 83 85 60 65 79 79 58 57 39 36 49 3 45 32 50 57 66 52 53 44 52 54 58 56 44 37 49 30 44 50 352 42 26 31 30 32 15 23 9 15 3 7 354 6 346 357 354 357 359 10 2 9 350 342 344 332 269 318 311 356 327 297 301 240
48 59 142 105 106 95 121 99 107 127 108 142 114 116 144 124 100 137 172 199 175 112 83 71 342 116 107 94 79 71 71 64 71 79 73 72 62 60 60 57 75 30 75 70 55 60 63 65 51 49 46 40 43 43 40 45 50 52 49 46 28 20 65 9 45 48 36 30 35 11 23 10 9 5 10 2 4 356 356 8 352 357 354 24 6 347 331 332 349 345 354 335 343 306 325 309 302
45 10 68 112 115 106 128 117 131 129 120 137 129 113 109 106 108 134 161 174 168 125 119 123 70 87 83 76 78 67 52 28 36 76 75 75 73 72 91 128 92 86 135 105 101 99 74 65 59 54 54 52 48 43 37 36 42 46 45 42 30 29 26 37 42 60 77 60 22 22 20 24 21 16 18 10 350 9 7 357 17 340 356 3 358 329 336 344 9 332 345 336 346 339 320 325 356
81 357 326 159 106 97 84 132 140 125 130 201 338 128 99 100 109 134 126 123 119 98 125 187 158 118 96 101 90 78 24 342 72 74 84 80 78 76 77 90 114 116 84 75 66 61 60 60 62 58 55 57 58 53 50 40 26 57 52 43 34 54 45 44 40 37 41 49 53 30 27 26 27 21 24 5 355 20 25 8 13 347 351 356 1 340 345 329 342 345 357 338 349 327 327 326 330
95 105 9 324 113 90 163 156 151 135 164 228 269 137 114 119 146 132 137 144 143 168 172 207 139 120 121 119 93 80 35 350 79 79 80 80 75 73 72 74 67 70 80 73 69 67 61 58 60 62 53 58 57 55 48 49 32 39 48 56 24 57 97 82 64 45 62 55 53 44 29 17 31 26 28 15 345 16 29 24 18 360 1 3 358 346 358 7 5 359 356 347 347 339 334 325 327
115 72 164 146 93 108 172 208 164 160 173 228 202 102 127 128 130 143 159 146 151 145 155 177 140 124 124 118 114 122 109 85 88 89 83 88 86 76 72 67 60 63 67 74 79 72 66 61 54 54 50 41 42 47 53 38 53 41 42 33 36 11 27 49 59 50 33 33 30 28 23 15 17 19 23 14 355 350 35 21 16 349 21 14 352 345 15 20 5 1 350 346 340 334 322 324 333
157 157 76 156 147 134 62 230 230 188 135 140 323 116 125 136 132 141 152 148 171 157 163 137 129 136 126 117 140 130 124 132 113 96 93 82 78 75 75 74 71 72 69 74 78 77 74 61 51 49 45 49 38 35 42 45 20 50 51 36 54 43 21 22 30 39 37 26 22 30 11 21 7 20 23 14 0 351 31 22 15 350 5 22 2 359 5 24 5 357 346 344 337 326 319 318 326
91 78 24 45 119 156 172 226 203 174 166 145 165 130 119 131 146 141 172 169 157 135 128 124 140 160 129 151 125 138 140 120 104 95 97 106 96 81 76 80 83 83 79 66 62 68 64 57 44 34 36 39 46 15 78 79 82 65 37 40 28 65 45 20 32 37 28 28 8 22 13 2 24 7 33 18 359 359 13 25 20 353 356 23 10 8 4 9 359 351 0 339 335 337 329 320 1
132 245 181 175 192 185 142 163 154 183 166 135 136 118 131 140 139 150 165 174 136 131 138 133 126 125 122 128 142 132 116 114 114 111 95 80 86 92 81 73 72 69 73 76 71 61 56 49 43 33 20 9 17 16 1 73 72 36 63 58 30 39 75 47 24 41 36 10 18 15 9 349 22 4 30 30 5 5 2 15 18 5 354 12 4 14 7 358 359 348 8 342 342 343 335 325 22
113 196 203 154 129 135 147 125 135 174 154 144 149 141 145 150 152 152 161 147 128 137 142 126 121 111 114 134 138 124 121 115 114 112 105 93 77 78 80 78 69 63 62 60 59 62 65 60 48 45 31 16 15 19 18 17 3 48 40 36 52 12 33 58 44 29 38 20 16 18 5 345 12 8 32 41 18 9 359 3 17 12 2 7 348 13 8 354 1 343 8 350 351 345 337 354 9
146 176 208 85 99 83 119 135 157 201 160 136 147 145 147 148 153 156 152 145 144 151 151 139 128 116 124 122 119 119 118 116 106 106 109 120 119 100 100 84 73 69 63 59 65 55 52 48 50 46 41 33 23 30 31 16 16 11 13 21 358 75 23 33 50 33 33 36 12 25 9 351 357 12 17 54 36 16 4 354 2 18 13 2 345 8 5 359 352 336 8 359 356 345 342 15 354
149 132 141 45 348 113 141 142 162 188 216 136 152 144 146 148 153 157 157 161 155 155 151 137 140 133 135 125 121 119 108 109 115 110 111 100 90 94 84 86 87 78 71 72 64 67 58 56 49 43 43 42 44 54 49 39 27 18 9 34 6 37 35 14 56 31 39 51 16 18 16 0 353 13 3 35 64 25 6 1 348 354 28 356 350 3 357 6 347 340 21 5 1 346 345 14 345
95 93 93 126 159 134 112 142 154 168 169 150 149 146 145 155 151 164 158 164 151 150 151 141 148 136 139 127 127 121 125 113 103 98 95 93 94 92 92 87 96 93 88 70 69 69 74 66 58 51 42 43 34 24 43 42 44 43 44 55 33 13 27 358 36 16 73 62 69 10 19 8 4 2 14 6 31 34 5 1 352 336 25 0 350 4 3 0 350 352 27 3 353 355 352 4 342
99 128 94 80 109 139 186 190 165 175 203 152 126 140 138 147 151 164 161 172 143 154 152 153 140 132 135 134 130 125 122 123 115 110 91 96 103 106 104 102 98 116 127 109 92 84 82 79 70 66 62 58 55 51 36 24 25 21 20 50 88 56 19 13 349 37 30 12 47 51 11 4 21 2 9 5 28 29 2 12 355 346 8 1 342 15 10 356 353 360 23 9 346 9 357 350 356
113 132 163 180 150 173 187 147 182 186 143 158 155 138 92 213 165 164 167 178 148 157 167 154 141 145 145 131 128 142 129 124 123 109 121 113 112 110 116 129 126 87 78 96 116 139 92 91 88 68 53 41 59 69 68 50 24 36 16 13 34 87 64 30 16 2 69 35 5 351 66 351 24 18 358 0 16 26 2 353 18 359 6 356 340 17 18 1 347 4 5 23 356 19 357 341 4
265 139 190 169 154 177 178 156 145 62 173 193 144 156 182 185 174 172 160 185 170 167 168 165 162 156 138 146 139 155 137 129 131 134 120 113 109 129 130 112 99 105 94 70 65 80 100 81 61 86 101 82 62 50 46 42 55 28 38 35 15 8 105 64 81 4 352 56 111 323 64 47 39 11 10 9 350 33 2 353 8 5 10 354 341 26 18 0 339 6 8 34 1 6 0 348 2
273 171 184 183 145 156 146 116 75 64 257 167 192 276 137 166 176 170 175 173 176 168 181 170 168 168 155 164 144 141 150 144 138 122 129 125 127 119 126 127 114 105 116 138 128 96 87 90 93 58 47 14 59 85 59 55 44 33 30 23 12 13 3 144 80 16 66 348 45 30 349 36 1 35 350 37 340 32 355 4 350 1 17 7 334 19 19 352 351 354 3 29 14 8 5 0 3
154 216 188 177 146 141 181 132 142 172 167 242 186 105 137 171 182 189 183 190 182 174 186 183 172 178 165 156 154 149 166 155 149 144 123 130 138 137 124 120 116 121 124 102 118 93 85 82 89 114 95 84 41 18 57 54 87 56 41 45 23 358 4 3 23 25 32 20 22 29 357 32 359 42 354 34 359 11 355 9 348 354 19 12 333 11 12 346 353 344 9 7 0 25 14 12 5
29 200 224 202 162 153 164 152 145 331 271 165 131 140 121 218 244 240 193 180 203 191 193 183 193 168 175 165 158 171 152 159 158 135 134 148 142 131 140 115 116 138 110 127 86 93 122 119 136 106 99 87 87 77 67 34 34 52 54 48 35 13 347 22 344 37 353 27 19 27 20 360 354 45 14 351 24 348 1 15 348 348 17 16 334 358 9 335 3 347 353 357 1 357 15 12 26
142 197 248 137 137 202 183 171 163 257 105 224 269 248 275 159 185 187 189 201 196 193 198 191 189 183 174 169 152 174 158 176 152 135 142 143 133 143 114 123 129 90 106 103 133 129 101 115 74 96 111 95 70 85 62 69 37 23 46 50 33 34 356 14 9 30 342 62 5 24 18 359 1 18 32 341 30 335 10 6 4 345 28 2 345 345 356 330 13 356 333 350 350 21 355 358 28
75 218 192 198 201 208 140 124 130 58 321 227 211 204 216 163 180 196 184 208 199 178 194 192 179 181 178 166 164 165 182 188 151 140 134 136 140 125 137 124 106 120 122 149 152 120 119 118 84 66 102 126 130 97 76 59 59 24 66 27 24 25 31 351 32 25 352 38 13 34 356 16 3 3 8 343 25 339 29 3 1 349 21 359 349 340 345 324 27 347 331 340 355 14 340 333 18
234 130 284 263 247 230 200 96 141 157 257 152 185 192 206 265 221 192 202 223 195 194 177 184 180 176 183 161 171 171 184 178 158 146 146 142 137 142 133 124 135 135 143 164 152 123 166 130 127 147 88 100 103 95 83 82 21 64 20 43 15 34 32 6 21 26 16 23 353 33 355 22 9 342 22 344 6 351 36 359 12 334 15 358 341 341 340 329 26 340 329 339 14 352 322 351 15
206 79 348 281 283 213 336 63 15 249 229 180 167 140 280 78 204 168 185 217 195 182 178 181 181 182 173 164 174 183 166 191 168 145 138 144 157 149 136 143 140 155 153 175 142 146 131 147 160 161 129 105 108 103 86 95 96 57 25 50 36 21 42 17 32 3 39 11 354 19 12 14 1 347 7 20 350 350 29 335 12 340 18 350 335 333 341 328 33 349 340 339 11 344 329 11 353
41 69 257 281 287 299 254 128 207 13 355 297 174 161 165 78 62 40 173 202 198 156 169 174 184 164 166 174 171 167 166 196 179 162 147 153 162 151 152 154 159 165 155 170 142 172 158 136 212 172 128 121 96 97 84 74 77 99 58 50 50 34 45 30 48 20 7 10 358 352 35 354 7 350 1 17 3 343 15 353 330 25 18 348 335 337 330 322 34 356 335 343 356 318 300 11 316
340 109 245 243 238 333 352 16 311 299 261 274 168 204 130 218 119 156 251 206 143 141 137 163 166 155 166 164 157 160 172 194 206 160 148 160 144 152 154 182 152 166 161 165 148 176 177 148 149 169 189 141 142 102 50 106 98 78 86 80 29 55 17 82 66 57 352 356 359 351 30 348 12 10 342 4 7 334 3 352 329 6 24 313 331 327 318 350 23 331 333 350 314 313 318 341 314
231 90 280 289 207 224 321 61 185 217 235 241 233 77 176 110 186 303 277 144 133 132 149 158 151 159 154 147 159 165 173 193 212 167 141 134 146 141 155 178 153 182 139 188 167 184 171 176 190 173 58 131 39 115 225 150 100 16 121 82 95 65 349 89 87 97 327 178 73 337 39 339 20 6 318 337 19 300 340 331 331 339 290 318 288 333 303 338 300 296 292 297 292 300 320 311 308
205 92 233 281 340 142 222 205 217 232 260 44 261 96 84 115 215 264 212 175 145 135 145 155 140 157 152 151 164 167 172 197 210 115 132 139 149 147 157 176 209 147 178 173 198 168 154 236 192 179 186 159 155 183 174 213 129 141 89 184 96 122 245 73 123 108 11 36 67 95 62 30 359 341 300 4 339 291 270 269 273 276 256 237 238 239 253 262 259 224 260 277 284 280 276 285 277
145 268 315 272 275 17 40 186 269 282 310 98 58 103 66 314 259 305 301 195 159 142 149 158 155 164 159 151 176 161 176 204 156 135 143 149 151 153 164 179 216 155 184 158 178 167 158 205 246 202 187 210 140 257 61 73 98 313 147 268 118 53 37 7 47 53 16 301 141 105 61 60 338 309 303 321 292 294 284 293 288 274 259 255 251 246 246 252 244 210 243 255 264 273 274 267 265
227 250 273 244 309 245 4 331 116 303 323 8 114 147 138 144 183 232 241 215 174 164 162 155 154 153 157 157 168 168 177 166 164 155 147 149 145 147 175 168 210 131 185 177 163 186 165 173 211 223 279 116 27 79 294 48 302 195 226 125 94 97 76 48 19 40 25 320 1 37 75 14 317 304 286 294 277 293 289 304 307 299 312 323 320 314 310 282 269 242 232 244 250 256 259 260 255
239 235 236 279 116 131 206 191 287 212 322 303 78 330 93 236 186 249 207 236 171 183 170 153 165 162 159 164 153 158 155 152 161 177 151 151 146 154 172 176 197 159 184 183 159 183 168 169 219 282 98 83 155 1 4 328 294 277 4 117 98 60 62 48 70 41 1 338 350 350 349 323 297 265 272 279 280 280 308 316 289 291 303 297 299 285 272 270 267 245 245 245 250 257 260 262 280
223 253 138 244 206 152 265 289 31 313 308 11 6 126 122 152 117 19 320 224 169 181 153 156 155 151 151 142 145 162 163 168 176 181 180 154 151 158 167 175 225 159 185 144 160 182 178 172 196 168 173 160 208 178 241 216 249 286 337 43 45 107 89 50 133 116 243 291 321 346 329 322 282 266 249 262 277 278 280 270 282 284 270 275 275 274 272 271 262 265 266 263 263 265 279 286 276
335 342 338 27 355 57 57 248 191 262 349 143 237 103 125 87 122 106 266 289 192 146 175 90 157 141 147 161 156 180 158 146 158 150 214 165 151 171 163 163 239 190 174 182 187 187 172 183 178 150 150 183 203 213 216 243 203 173 148 221 187 126 193 251 324 238 26 310 351 330 326 294 281 275 265 278 283 295 290 307 312 312 304 294 290 295 307 304 295 289 286 281 285 288 295 301 302